Tracking 19920 objects as of 13-Oct-2019
HD Live streaming from Space Station
objects crossing your sky now

IRIDIUM 33 DEB

Track IRIDIUM 33 DEB now!
10-day predictions


NORAD ID: 34099
Int'l Code: 1997-051DJ
Perigee: 684.1 km
Apogee: 709.1 km
Inclination: 86.4 °
Period: 98.6 minutes
Semi major axis: 7067 km
RCS: 0.027 m2 (small)
Launch date: September 14, 1997
Source: United States (US)
Launch site: TYURATAM MISSILE AND SPACE COMPLEX (TTMTR)

Note: This is SATELLITE DEBRIS
aabbcc
Your satellite tracking list
Your tracking list is empty




NASA's NSSDC Master Catalog

Two Line Element Set (TLE):
1 34099U 97051DJ  19285.89806760 +.00001987 +00000-0 +39853-3 0  9992
2 34099 086.3654 252.6765 0017670 094.8941 326.7908 14.61156749562268
Source of the keplerian elements: AFSPC